Weather History for Brainerd, MN

Change the Weather History Date:

Saturday, May 31, 2014

  Actual Average Record
Temperature  
Mean Temperature 74 °F -  
Max Temperature 80 °F 72 °F 90 °F (1988)
Min Temperature 68 °F 47 °F 35 °F (1981)
Cooling Degree Days 8    
Growing Degree Days 24 (Base 50)    
Moisture  
Dew Point 64 °F    
Average Humidity 78    
Maximum Humidity 84    
Minimum Humidity 44    
Precipitation  
Precipitation 1.58 in - - ()
Sea Level Pressure  
Sea Level Pressure 30.00 in    
Wind  
Wind Speed 7 mph (SE)    
Max Wind Speed 15 mph    
Max Gust Speed 23 mph    
Visibility 5 miles    
Events Rain , Thunderstorm    
Averages and records for this station are not official NWS values.
T = Trace of Precipitation, MM = Missing Value Source: NWS Daily Summary

Daily Weather History Graph

Daily Weather History Graph

Search for Another Location

Airport:

Trip Planner

Search our weather history database for the weather conditions in past years. The results will help you decide how hot, cold, wet, or windy it might be!

Date:

Astronomy

May. 31, 2014 Rise Set
Actual Time 5:28 AM CDT 9:00 PM CDT
Civil Twilight 4:50 AM CDT 9:38 PM CDT
Nautical Twilight 4:00 AM CDT 10:28 PM CDT
Astronomical Twilight 2:54 AM CDT 11:35 PM CDT
Moon 8:10 AM CDT (5/31) 11:13 PM CDT (5/31)
Length of Visible Light 16h 47m
Length of Day
15h 32m
Waxing Crescent, 8% of the Moon is Illuminated
May 31
Waxing Crescent
Jun 5
First Quarter
Jun 12
Full
Jun 19
Last Quarter
Jun 27
New

Hourly Weather History & Observations

Time (CDT) Temp. Dew Point Humidity Pressure Visibility Wind Dir Wind Speed Gust Speed Precip Events Conditions
12:29 AM 79.0 °F 55.0 °F 44% 30.05 in 10.0 mi South 9.2 mph - N/A   Mostly Cloudy
12:53 AM 78.1 °F 55.0 °F 45% 30.02 in 10.0 mi South 8.1 mph - N/A   Scattered Clouds
1:39 AM 75.9 °F 60.1 °F 58% 30.05 in 10.0 mi NW 5.8 mph - 0.00 in Thunderstorm Overcast
1:53 AM 73.9 °F 63.0 °F 68% 30.05 in 10.0 mi WNW 11.5 mph 23.0 mph 0.00 in Rain , Thunderstorm Light Thunderstorms and Rain
2:11 AM 73.9 °F 63.0 °F 68% 30.06 in 10.0 mi NNW 13.8 mph - 0.00 in Rain , Thunderstorm Light Rain
2:24 AM 72.0 °F 64.0 °F 76% 30.06 in 6.0 mi North 15.0 mph - 0.02 in Rain , Thunderstorm Thunderstorms and Rain
2:36 AM 71.1 °F 64.0 °F 78% 30.08 in 4.0 mi North 10.4 mph - 0.08 in Rain , Thunderstorm Thunderstorms and Rain
2:42 AM 71.1 °F 64.0 °F 78% 30.11 in 1.8 mi NW 13.8 mph - 0.23 in Rain , Thunderstorm Heavy Thunderstorms and Rain
2:46 AM 71.1 °F 64.9 °F 81% 30.11 in 0.8 mi NNW 9.2 mph - 0.45 in Rain , Thunderstorm Heavy Thunderstorms and Rain
2:53 AM 70.0 °F 64.0 °F 81% 30.06 in 0.8 mi ENE 6.9 mph - 0.69 in Rain , Thunderstorm Heavy Thunderstorms and Rain
2:58 AM 70.0 °F 64.9 °F 84% 30.09 in 1.2 mi NE 6.9 mph - 0.04 in Rain , Thunderstorm Heavy Thunderstorms and Rain
3:01 AM 70.0 °F 64.9 °F 84% 30.09 in 2.0 mi ENE 6.9 mph - 0.06 in Rain , Thunderstorm Heavy Thunderstorms and Rain
3:13 AM 70.0 °F 64.0 °F 81% 30.08 in 1.2 mi East 6.9 mph - 0.25 in Rain , Thunderstorm Heavy Thunderstorms and Rain
3:43 AM 70.0 °F 64.0 °F 81% 30.09 in 0.8 mi Variable 4.6 mph - 0.77 in Rain , Thunderstorm Heavy Thunderstorms and Rain
3:48 AM 69.8 °F 62.6 °F 78% 30.08 in 1.5 mi South 3.5 mph - 0.80 in Rain , Thunderstorm Heavy Thunderstorms and Rain
4:02 AM 69.1 °F 63.0 °F 81% 30.06 in 3.0 mi ENE 5.8 mph - 0.02 in Rain , Thunderstorm Light Thunderstorms and Rain
4:18 AM 69.1 °F 63.0 °F 81% 30.04 in 6.0 mi Variable 3.5 mph - 0.05 in Rain , Thunderstorm Light Rain
4:26 AM 69.1 °F 63.0 °F 81% 30.04 in 7.0 mi ENE 3.5 mph - 0.05 in Rain , Thunderstorm Light Thunderstorms and Rain
4:41 AM 69.1 °F 63.0 °F 81% 30.03 in 9.0 mi ESE 6.9 mph - 0.05 in Rain Light Rain
4:53 AM 69.1 °F 63.0 °F 81% 30.02 in 10.0 mi Calm Calm - 0.05 in Rain , Thunderstorm Light Rain
5:11 AM 69.1 °F 63.0 °F 81% 30.04 in 7.0 mi ENE 4.6 mph - 0.01 in Rain Light Rain
5:53 AM 69.1 °F 63.0 °F 81% 30.03 in 8.0 mi Variable 4.6 mph - 0.02 in Rain , Thunderstorm Light Rain
6:08 AM 69.1 °F 63.0 °F 81% 30.07 in 3.0 mi South 3.5 mph - 0.04 in Rain , Thunderstorm Rain
6:13 AM 69.1 °F 63.0 °F 81% 30.07 in 2.5 mi South 3.5 mph - 0.06 in Rain , Thunderstorm Rain
6:25 AM 69.1 °F 63.0 °F 81% 30.07 in 5.0 mi Calm Calm - 0.07 in Rain , Thunderstorm Light Rain
6:33 AM 69.1 °F 63.0 °F 81% 30.07 in 7.0 mi SE 3.5 mph - 0.07 in Rain Light Rain
6:53 AM 69.1 °F 63.0 °F 81% 30.04 in 5.0 mi ENE 4.6 mph - 0.09 in Rain Light Rain
7:08 AM 69.1 °F 63.0 °F 81% 30.07 in 4.0 mi Calm Calm - 0.02 in Rain Light Rain
7:20 AM 69.1 °F 63.0 °F 81% 30.08 in 4.0 mi SE 8.1 mph - 0.02 in Rain Light Rain
7:44 AM 68.0 °F 63.0 °F 84% 30.06 in 3.0 mi SE 8.1 mph - 0.07 in Rain Light Rain
7:50 AM 68.0 °F 62.6 °F 83% 30.07 in 2.5 mi SSE 6.9 mph - 0.09 in Rain Rain
7:53 AM 68.0 °F 63.0 °F 84% 30.06 in 2.5 mi South 5.8 mph - 0.09 in Rain Rain
8:42 AM 69.1 °F 63.0 °F 81% 30.05 in 3.0 mi SSE 6.9 mph - 0.15 in Rain Rain
8:53 AM 69.1 °F 64.0 °F 84% 30.02 in 3.0 mi SSE 6.9 mph - 0.17 in Rain Rain
10:12 AM 70.0 °F 64.0 °F 81% 30.05 in 7.0 mi South 10.4 mph - 0.00 in Rain Light Rain
10:23 AM 70.0 °F 64.0 °F 81% 30.04 in 7.0 mi SSE 8.1 mph - 0.00 in Rain Light Rain
10:53 AM 71.1 °F 64.9 °F 81% 30.02 in 10.0 mi SSE 5.8 mph - 0.00 in Rain Light Rain
11:50 AM 71.6 °F 64.4 °F 78% 30.04 in 8.0 mi SSE 4.6 mph - 0.00 in Rain Light Rain
11:53 AM 71.1 °F 64.0 °F 78% 30.02 in 8.0 mi SSE 6.9 mph - 0.00 in Rain Light Rain
12:26 PM 72.0 °F 64.9 °F 78% 30.05 in 5.0 mi South 8.1 mph - 0.00 in Rain Light Rain
12:53 PM 72.0 °F 64.9 °F 78% 30.00 in 6.0 mi ESE 6.9 mph - 0.00 in Rain Light Rain
1:11 PM 73.0 °F 64.9 °F 76% 30.01 in 8.0 mi SE 11.5 mph - 0.00 in   Mostly Cloudy
1:34 PM 73.9 °F 64.9 °F 73% 30.01 in 10.0 mi South 9.2 mph - 0.00 in   Scattered Clouds
1:53 PM 73.9 °F 64.0 °F 71% 30.00 in 10.0 mi SE 4.6 mph - 0.00 in   Mostly Cloudy
2:07 PM 73.9 °F 64.9 °F 73% 30.01 in 10.0 mi SE 6.9 mph - N/A   Mostly Cloudy
2:53 PM 77.0 °F 64.9 °F 66% 29.97 in 10.0 mi Variable 3.5 mph - N/A   Mostly Cloudy
3:53 PM 79.0 °F 64.9 °F 62% 29.95 in 10.0 mi Calm Calm - N/A   Scattered Clouds
4:53 PM 78.1 °F 66.0 °F 66% 29.94 in 10.0 mi ESE 4.6 mph - N/A   Mostly Cloudy
5:04 PM 78.1 °F 66.0 °F 66% 29.95 in 10.0 mi Variable 5.8 mph - N/A   Mostly Cloudy
5:53 PM 77.0 °F 66.0 °F 69% 29.92 in 8.0 mi SE 4.6 mph - N/A   Overcast
6:06 PM 77.0 °F 66.9 °F 71% 29.94 in 7.0 mi SSE 8.1 mph - N/A   Overcast
6:14 PM 75.9 °F 66.9 °F 74% 29.93 in 4.0 mi SE 8.1 mph - 0.00 in Rain Light Rain
6:18 PM 75.0 °F 66.9 °F 76% 29.94 in 1.8 mi SSE 11.5 mph 16.1 mph 0.03 in Rain , Thunderstorm Heavy Thunderstorms and Rain
6:25 PM 73.9 °F 66.0 °F 76% 29.94 in 1.5 mi SSE 8.1 mph - 0.06 in Rain , Thunderstorm Thunderstorms and Rain
6:36 PM 73.0 °F 66.9 °F 81% 29.93 in 1.2 mi SSE 4.6 mph - 0.10 in Rain Heavy Rain
6:43 PM 73.0 °F 66.0 °F 79% 29.93 in 2.0 mi South 4.6 mph - 0.11 in Rain Light Rain
6:53 PM 73.0 °F 66.9 °F 81% 29.91 in 4.0 mi SSE 3.5 mph - 0.11 in Rain Light Rain
7:07 PM 72.0 °F 66.0 °F 81% 29.93 in 1.8 mi SSE 3.5 mph - 0.02 in Rain Rain
7:13 PM 72.0 °F 66.0 °F 81% 29.93 in 0.8 mi Calm Calm - 0.06 in Rain Heavy Rain
7:23 PM 73.0 °F 66.0 °F 79% 29.92 in 1.5 mi Calm Calm - 0.08 in Rain Light Rain
7:49 PM 71.6 °F 66.2 °F 83% 29.90 in 2.5 mi Calm Calm - 0.13 in Rain Rain
7:53 PM 72.0 °F 66.0 °F 81% 29.90 in 2.5 mi Calm Calm - 0.14 in Rain Rain
8:13 PM 72.0 °F 66.0 °F 81% 29.90 in 3.0 mi Calm Calm - 0.02 in Rain Rain
8:26 PM 72.0 °F 66.9 °F 84% 29.90 in 2.5 mi South 3.5 mph - 0.05 in Rain Light Rain
8:39 PM 72.0 °F 66.0 °F 81% 29.90 in 2.0 mi East 3.5 mph - 0.09 in Rain , Thunderstorm Rain
8:53 PM 71.1 °F 66.0 °F 84% 29.88 in 3.0 mi ESE 6.9 mph - 0.11 in Rain , Thunderstorm Rain
9:00 PM 71.1 °F 66.0 °F 84% 29.90 in 3.0 mi SE 8.1 mph - 0.01 in Rain Light Rain
9:06 PM 71.1 °F 66.0 °F 84% 29.90 in 3.0 mi SE 10.4 mph - 0.02 in Rain , Thunderstorm Rain
9:53 PM 71.1 °F 64.9 °F 81% 29.86 in 5.0 mi Variable 4.6 mph - 0.09 in Rain Light Rain
10:43 PM 70.0 °F 64.9 °F 84% 29.88 in 6.0 mi SE 8.1 mph - 0.02 in Rain Light Rain
10:53 PM 70.0 °F 64.0 °F 81% 29.87 in 8.0 mi ESE 8.1 mph - 0.02 in Rain Light Rain
11:03 PM 70.0 °F 64.0 °F 81% 29.88 in 10.0 mi SSE 9.2 mph - 0.00 in Rain Light Rain
11:53 PM 69.1 °F 63.0 °F 81% 29.87 in 10.0 mi SSE 10.4 mph - 0.00 in   Overcast